Location: S�tio Afonso Gruber
(26.1760°S, 49.5250°W)
Time: 00:38:06
(UTC+00:00)

Cosmos 2016 Rocket - Pass Details

Date: 07 June 2020
Orbit: 947 x 1000 km, 83.0° (Epoch: 13 July)

Event Time Altitude Azimuth Distance (km) Brightness Sun altitude
Rises 08:55:37 0° 191° (S) 3,736 6.8 -14.4°
Reaches altitude 10° 08:58:12 10° 195° (SSW) 2,775 6.1 -13.8°
Maximum altitude 09:04:26 58° 271° (W) 1,143 4.1 -12.5°
Drops below altitude 10° 09:10:31 10° 349° (N) 2,712 6.5 -11.2°
Sets 09:13:02 0° 353° (N) 3,644 7.2 -10.7°
